Location: Recife
(8.0585°S, 34.8848°W)
Time: 04:24:31
(UTC-03:00)

Courier 1B - Pass Details

Date: 20 April 2026
Orbit: 962 x 1209 km, 28.3° (Epoch: 14 May)

Event Time Altitude Azimuth Distance (km) Brightness Sun altitude
Rises 08:30:40 0° 233° (SW) 4,097 10.3 43.9°
Reaches altitude 10° 08:34:57 10° 212° (SSW) 3,147 9.9 44.8°
Maximum altitude 08:39:27 16° 177° (S) 2,718 9.8 45.8°
Drops below altitude 10° 08:43:56 10° 141° (SE) 3,134 10.4 46.8°
Sets 08:48:11 0° 121° (ESE) 4,071 11.0 47.8°
